Stations météo

réclame
Mon MeteoGroup
Rodkallen, Suède (2188): Température de l'air & dewpoint: 01.12.2019 18:00:00 - 07.12.2019 18:00:00 (CET)Rodkallen, Suède (2188): Vitesse du vent & gusts: 01.12.2019 18:00:00 - 07.12.2019 18:00:00 (CET)Rodkallen, Suède (2188): Direction du vent: 01.12.2019 18:00:00 - 07.12.2019 18:00:00 (CET)Rodkallen, Suède (2188): visibility: 01.12.2019 18:00:00 - 07.12.2019 18:00:00 (CET)Rodkallen, Suède (2188): Quantités de précipitations: 01.12.2019 18:00:00 - 07.12.2019 18:00:00 (CET)
Date & Time tt [°C] td [°C] ff [km/h] ff [knt] fx [km/h] fx [knt] dd vv [km] rr [mm]
07.12.2019 18:00:00 -0,1 -1,8 19 10 22 12 SW 50 0,0
07.12.2019 17:00:00 0,1 -1,3 20 11 24 13 SW 50 0,0
07.12.2019 16:00:00 0,1 -1,3 15 8 23 12 SSW 50 0,0
07.12.2019 15:00:00 0,1 -1,3 16 9 20 11 SW 50 0,0
07.12.2019 14:00:00 0,1 -1,2 17 9 22 12 SSW 50 0,0
07.12.2019 13:00:00 0,2 -1,2 18 10 21 12 SSW 49 0,0
07.12.2019 12:00:00 0,1 -1,5 10 6 23 12 SSW 44 0,0
07.12.2019 11:00:00 0,1 -1,3 21 11 25 13 SSW 50 0,0
07.12.2019 10:00:00 0,2 -1,3 18 10 23 13 SSW 50 0,0
07.12.2019 09:00:00 0,4 -1,2 20 11 24 13 SW 50 0,0
07.12.2019 08:00:00 0,2 -1,4 18 10 23 12 SSW 50 0,0
07.12.2019 07:00:00 0,3 -1,6 22 12 30 16 SSW 50 0,0
07.12.2019 06:00:00 0,2 -1,9 21 12 27 15 SSW 50 0,0
07.12.2019 05:00:00 0,2 -1,9 21 11 27 15 SW 50 0,0
07.12.2019 04:00:00 0,3 -1,8 21 11 28 15 SW 50 0,0
07.12.2019 03:00:00 0,4 -1,5 23 13 32 17 SSW 50 0,0
07.12.2019 02:00:00 0,4 -1,5 27 15 34 19 SSW 50 0,0
07.12.2019 01:00:00 0,3 -1,6 28 15 34 19 SSW 50 0,0
07.12.2019 00:00:00 0,2 -1,7 25 13 32 18 SSW 50 0,0
06.12.2019 23:00:00 0,2 -1,7 30 16 36 19 SSW 50 0,0
06.12.2019 22:00:00 0,2 -1,9 29 15 35 19 SSW 50 0,0
06.12.2019 21:00:00 0,2 -1,7 22 12 32 18 SSW 50 0,0
06.12.2019 20:00:00 0,1 -1,8 27 15 31 17 SSW 50 0,0
06.12.2019 19:00:00 -0,1 -2,2 24 13 30 16 SSW 50 0,0
06.12.2019 18:00:00 -0,2 -2,3 27 14 35 19 SW 50 0,0
06.12.2019 17:00:00 -0,2 -2,3 27 15 35 19 SW 50 0,0
06.12.2019 16:00:00 0,0 -2,5 26 14 33 18 SW 50 0,0
06.12.2019 15:00:00 0,1 -2,1 21 11 26 14 WSW 50 0,0
06.12.2019 14:00:00 -0,1 -2,3 24 13 31 17 SW 50 0,0
06.12.2019 13:00:00 0,0 -2,1 16 9 27 14 WSW 50 0,0
06.12.2019 12:00:00 0,3 -1,8 22 12 31 17 SW 50 0,0
06.12.2019 11:00:00 0,4 -1,5 24 13 29 15 SW 50 0,0
06.12.2019 10:00:00 0,4 -1,8 21 11 25 14 SW 50 0,0
06.12.2019 09:00:00 0,2 -2,2 17 9 23 12 SW 50 0,0
06.12.2019 08:00:00 0,1 -2,3 21 12 33 18 WSW 50 0,0
06.12.2019 07:00:00 0,4 -2,3 24 13 33 18 WSW 50 0,0
06.12.2019 06:00:00 0,6 -2,1 22 12 37 20 SW 50 0,0
06.12.2019 05:00:00 0,7 -2,2 31 17 38 20 SW 50 0,0
06.12.2019 04:00:00 0,7 -2,3 31 17 37 20 SW 50 0,0
06.12.2019 03:00:00 0,9 -2,3 28 15 35 19 WSW 50 0,0
06.12.2019 02:00:00 1,0 -2,2 29 16 38 20 SW 48 0,0
06.12.2019 01:00:00 1,3 -2,3 30 16 36 19 SW 50 0,0
06.12.2019 00:00:00 1,5 -1,7 32 18 37 20 SW 50 0,0
05.12.2019 23:00:00 1,7 -1,2 29 16 40 22 SW 50 0,0
05.12.2019 22:00:00 1,6 -0,8 29 16 36 20 SW 49 0,0
05.12.2019 21:00:00 1,4 -0,5 32 17 40 21 SSW 40 0,0
05.12.2019 20:00:00 1,3 -0,3 35 19 41 22 S 35 0,0
05.12.2019 19:00:00 1,4 -0,5 33 18 43 23 S 37 0,0
05.12.2019 18:00:00 1,3 -0,3 36 20 44 24 S 35 0,0
05.12.2019 17:00:00 1,5 -0,3 35 19 44 24 S 40 0,0
05.12.2019 16:00:00 1,5 -0,1 33 18 42 23 S 35 0,0
05.12.2019 15:00:00 1,5 -0,1 35 19 47 25 S 48 0,0
05.12.2019 14:00:00 1,3 0,1 36 20 41 22 S 42 0,0
05.12.2019 13:00:00 1,4 0,1 36 19 41 22 S 45 0,0
05.12.2019 12:00:00 2,0 -0,1 32 17 39 21 SSW 45 0,0
05.12.2019 11:00:00 1,9 -0,2 31 17 37 20 S 37 0,0
05.12.2019 10:00:00 2,1 -0,2 32 17 40 21 SSW 50 0,0
05.12.2019 09:00:00 2,3 0,4 28 15 33 18 SSW 50 0,0
05.12.2019 08:00:00 1,9 0,6 27 15 32 17 SSW 43 0,0
05.12.2019 07:00:00 2,1 0,8 26 14 34 18 SSW 43 0,0
05.12.2019 06:00:00 1,8 0,5 24 13 35 19 SW 35 0,0
05.12.2019 05:00:00 2,3 1,0 26 14 33 18 SSW 36 0,0
05.12.2019 04:00:00 2,0 0,9 28 15 33 18 SSW 38 0,0
05.12.2019 03:00:00 1,8 0,8 24 13 41 22 S 22 0,0
05.12.2019 02:00:00 2,3 1,0 25 13 32 17 SW 30 0,2
05.12.2019 01:00:00 2,4 1,2 24 13 32 17 SW 12 0,2
05.12.2019 00:00:00 2,5 1,0 24 13 36 20 SW 35 0,0
04.12.2019 23:00:00 2,4 0,8 25 13 40 21 SSW 36 0,0
04.12.2019 22:00:00 2,4 0,7 20 11 34 18 SSW 50 0,0
04.12.2019 21:00:00 2,3 0,5 19 10 29 16 SSW 50 0,0
04.12.2019 20:00:00 2,7 0,8 29 16 32 17 SW 50 0,0
04.12.2019 19:00:00 2,8 0,7 30 16 40 21 SW 50 0,0
04.12.2019 18:00:00 3,7 0,9 32 18 40 21 SW 50 0,0
04.12.2019 17:00:00 2,5 0,2 38 20 44 24 SW 50 0,0
04.12.2019 16:00:00 2,9 0,9 36 19 41 22 SW 50 0,0
04.12.2019 15:00:00 3,2 0,9 36 19 46 25 SW 50 0,0
04.12.2019 14:00:00 3,8 0,8 36 20 49 27 WSW 50 0,0
04.12.2019 13:00:00 3,8 0,7 47 25 53 29 W 50 0,0
04.12.2019 12:00:00 2,5 0,1 22 12 37 20 WSW 50 0,0
04.12.2019 11:00:00 3,5 0,7 31 17 40 22 WSW 50 0,0
04.12.2019 10:00:00 3,4 1,0 37 20 44 24 WSW 50 0,0
04.12.2019 09:00:00 3,5 1,2 35 19 42 23 WSW 50 0,0
04.12.2019 08:00:00 3,2 1,2 31 17 37 20 W 50 0,0
04.12.2019 07:00:00 2,5 1,0 30 16 35 19 WSW 50 0,0
04.12.2019 06:00:00 2,5 1,5 29 16 32 18 WSW 50 0,0
04.12.2019 05:00:00 2,1 1,4 22 12 27 15 WSW 50 0,1
04.12.2019 04:00:00 1,6 1,0 22 12 29 15 SW 18 0,4
04.12.2019 03:00:00 1,3 0,7 25 13 29 16 SW 11 0,6
04.12.2019 02:00:00 1,0 0,3 22 12 25 14 SSW 8 0,7
04.12.2019 01:00:00 1,0 0,1 20 11 26 14 SW 13 0,2
04.12.2019 00:00:00 0,8 -0,1 19 10 27 14 SSW 50 0,0
03.12.2019 23:00:00 0,8 0,1 23 12 29 16 SSW 50 0,0
03.12.2019 22:00:00 0,6 0,1 21 11 27 14 SSW 50 0,0
03.12.2019 21:00:00 0,5 0,1 23 12 27 15 SSW 50 0,0
03.12.2019 20:00:00 0,4 0,0 22 12 26 14 SSW 23 0,0
03.12.2019 19:00:00 0,1 -0,3 23 12 29 16 SSW 6 0,1
03.12.2019 18:00:00 0,0 -0,6 26 14 32 17 SSW 6 0,1
03.12.2019 17:00:00 -0,1 -0,8 29 16 38 21 SSW 2,2 0,1
03.12.2019 16:00:00 -0,4 -1,3 31 17 39 21 SSW 6 0,0
03.12.2019 15:00:00 -0,3 -2,2 33 18 41 22 SSW 42 -
03.12.2019 14:00:00 -0,5 -3,0 22 12 28 15 SSW 50 0,0
03.12.2019 13:00:00 -0,7 -3,6 19 10 28 15 SSW 50 0,0
03.12.2019 12:00:00 -0,6 -3,5 18 10 27 14 SSW 50 0,0
03.12.2019 11:00:00 -0,6 -4,1 24 13 28 15 SW 50 0,0
03.12.2019 10:00:00 -0,6 -4,3 20 11 25 13 SW 50 0,0
03.12.2019 09:00:00 -0,7 -4,6 19 11 23 13 WSW 49 0,0
03.12.2019 08:00:00 -0,7 -4,8 18 10 27 15 W 50 0,0
03.12.2019 07:00:00 -0,7 -4,8 24 13 29 16 W 50 0,0
03.12.2019 06:00:00 -0,5 -4,9 23 12 27 15 W 48 0,0
03.12.2019 05:00:00 -0,5 -4,9 22 12 33 18 W 50 0,0
03.12.2019 04:00:00 -0,3 -4,9 27 15 34 19 W 50 0,0
03.12.2019 03:00:00 -0,2 -4,8 28 15 38 20 W 50 0,0
03.12.2019 02:00:00 -0,2 -5,2 30 16 38 21 WNW 50 0,0
03.12.2019 01:00:00 -0,1 -4,9 29 15 44 24 WNW 50 0,0
03.12.2019 00:00:00 0,0 -5,0 30 16 41 22 WNW 50 0,0
02.12.2019 23:00:00 -0,3 -5,3 32 17 40 21 W 50 0,0
02.12.2019 22:00:00 -0,3 -5,5 32 17 39 21 W 50 0,0
02.12.2019 21:00:00 -0,1 -5,7 31 17 45 24 WNW 50 0,0
02.12.2019 20:00:00 0,3 -5,7 36 19 44 24 WNW 50 0,0
02.12.2019 19:00:00 0,5 -5,3 36 20 44 24 W 50 0,0
02.12.2019 18:00:00 0,5 -5,5 35 19 45 24 W 50 0,0
02.12.2019 17:00:00 0,5 -5,5 35 19 48 26 W 50 0,0
02.12.2019 16:00:00 0,5 -5,6 40 22 53 29 W 50 0,0
02.12.2019 15:00:00 0,3 -5,7 41 22 51 27 W 50 0,0
02.12.2019 14:00:00 -0,2 -5,6 40 22 48 26 W 50 0,0
02.12.2019 13:00:00 -0,4 -6,0 37 20 49 27 W 50 0,0
02.12.2019 12:00:00 -0,3 -5,9 38 21 50 27 W 50 0,0
02.12.2019 11:00:00 -0,7 -6,3 41 22 51 27 W 50 0,0
02.12.2019 10:00:00 -0,8 -6,1 36 19 48 26 W 50 0,0
02.12.2019 09:00:00 -0,8 -6,2 37 20 45 24 W 50 0,0
02.12.2019 08:00:00 -0,7 -6,1 34 19 44 24 W 50 0,0
02.12.2019 07:00:00 -0,6 -6,2 34 19 43 23 W 50 0,0
02.12.2019 06:00:00 -0,5 -6,1 37 20 51 27 W 50 0,0
02.12.2019 05:00:00 -0,2 -6,2 39 21 49 26 W 50 0,0
02.12.2019 04:00:00 0,1 -6,2 38 21 48 26 W 50 0,0
02.12.2019 03:00:00 0,0 -5,8 37 20 48 26 W 50 0,0
02.12.2019 02:00:00 -0,1 -5,5 38 21 48 26 W 50 0,0
02.12.2019 01:00:00 -0,3 -5,3 37 20 52 28 W 50 0,0
02.12.2019 00:00:00 -0,4 -5,6 41 22 54 29 W 50 0,0
01.12.2019 23:00:00 -0,4 -5,6 42 23 54 29 W 50 0,0
01.12.2019 22:00:00 -0,3 -5,4 40 22 52 28 W 50 0,0
01.12.2019 21:00:00 -0,5 -5,1 39 21 52 28 W 50 0,0
01.12.2019 20:00:00 -0,4 -5,0 40 22 55 30 W 50 0,0
01.12.2019 19:00:00 -0,4 -5,0 41 22 56 31 W 50 0,0
01.12.2019 18:00:00 -0,7 -5,3 46 25 55 30 W 50 0,0

tt = Température de l'air
td = dewpoint
ff = Vitesse du vent
fx = gusts
dd = Direction du vent
vv = visibility
rr = Quantités de précipitations

stations d'obs. à proximité